Theta_e
323 326 328 330 328 326 325 326 326 326 326 326 326 326 324 325 321 314 314 312 308 310 313 312 312 312 312 312 313 311 310 313 314 315 317 318 319 319 322 324 326 327 328 330 330 330 331 330 330 330 330 330 331 331 332 331 332 332 331 331 331 331 331 332 332 332 332 331 332 332 332 332 333 333 333 333 333 331 330 329 329 329 329 329 328 328
324 329 329 327 326 324 324 325 324 323 323 324 325 325 323 322 322 316 313 313 309 310 314 312 312 312 312 312 312 311 310 311 312 312 314 315 317 318 320 322 324 326 327 328 328 327 328 329 329 329 329 329 330 330 331 331 332 332 331 331 331 332 331 332 332 332 332 332 333 333 333 333 334 334 333 332 332 332 331 330 329 329 329 329 328 328
327 329 328 325 324 324 324 323 322 321 320 323 323 325 326 321 320 317 312 310 309 312 316 314 313 313 313 312 313 312 310 311 311 312 313 314 315 317 317 319 321 323 324 325 326 326 326 327 328 329 328 329 329 330 330 330 331 332 332 332 332 332 332 332 332 332 332 333 333 334 334 334 334 334 333 332 332 332 332 330 329 329 328 328 328 328
330 328 326 325 324 324 323 320 321 321 319 322 322 324 326 319 320 322 313 309 310 311 314 313 313 314 315 314 314 314 312 311 312 311 312 313 313 315 316 317 318 320 322 322 324 325 325 326 327 328 329 329 329 330 330 330 330 331 331 331 332 332 332 332 332 333 333 333 333 333 333 333 333 333 332 332 332 333 333 332 330 329 328 328 328 328
328 327 324 324 324 323 321 320 321 320 319 320 321 325 325 316 318 322 313 310 312 311 310 311 315 318 318 319 318 317 313 310 311 310 310 311 311 313 314 314 315 316 319 321 321 323 323 324 325 326 327 328 329 329 330 330 330 330 330 331 331 332 332 332 332 333 333 333 332 332 333 332 332 332 332 332 332 332 332 332 331 329 328 327 328 328
326 324 323 324 325 323 321 321 321 322 322 320 319 321 323 318 317 316 312 312 316 316 311 311 320 324 320 319 320 318 314 311 310 309 309 310 310 311 311 311 313 314 315 317 318 321 322 322 323 324 326 327 328 329 330 330 329 330 329 330 330 331 331 331 332 332 332 332 332 331 331 331 331 331 331 331 331 331 331 332 331 330 329 328 327 328
324 322 323 324 324 324 323 322 321 323 325 323 319 317 319 320 318 315 312 315 318 320 313 310 318 323 318 317 318 316 315 313 312 310 310 311 310 310 310 310 312 312 313 314 314 316 318 319 320 321 323 325 327 327 328 329 329 329 329 330 330 330 330 331 331 331 331 332 332 331 331 330 330 330 331 331 332 332 331 332 332 330 330 328 328 328
322 321 324 324 325 324 324 324 322 322 326 326 321 317 317 319 319 317 314 315 316 316 314 312 314 316 316 316 315 314 314 313 313 312 311 311 310 310 310 310 311 312 313 314 313 312 313 316 317 318 319 321 323 325 326 327 327 328 328 329 329 330 330 330 330 331 331 331 332 331 331 331 331 331 331 331 331 332 331 332 332 331 330 329 328 327
321 323 324 324 325 325 325 325 321 322 325 321 317 318 318 317 318 317 315 315 314 313 317 315 312 315 318 315 312 312 314 316 315 314 313 312 311 311 310 310 310 311 312 312 312 312 312 313 314 315 316 317 318 320 323 324 325 326 327 328 329 329 329 329 329 330 330 331 331 331 331 331 331 331 331 332 331 331 332 331 331 331 330 329 328 327
320 321 323 324 325 325 325 322 320 323 321 313 312 316 316 315 315 314 315 314 312 315 321 318 313 317 321 318 313 312 313 316 317 315 314 313 313 312 311 312 311 310 311 311 311 311 312 311 311 312 312 313 314 316 318 320 323 325 326 327 327 328 328 328 329 329 330 330 330 331 331 331 331 331 331 332 331 331 331 332 331 330 330 329 328 327
315 316 320 322 322 321 320 319 319 320 315 310 312 314 313 314 314 313 313 312 315 321 320 315 313 316 320 320 316 315 313 314 316 315 315 314 313 313 312 313 313 310 310 310 309 309 310 310 309 308 308 309 310 311 314 316 320 322 324 325 326 327 328 328 328 329 329 329 330 331 331 331 331 331 331 331 331 331 331 331 331 330 330 329 329 328
315 317 319 317 315 316 316 316 315 313 312 312 313 313 314 315 315 314 312 312 321 325 314 309 311 314 319 320 316 316 314 312 315 315 315 314 314 315 315 314 312 310 310 310 310 309 309 309 307 306 306 307 307 308 310 313 316 319 321 324 325 327 327 327 328 328 328 329 329 330 331 331 331 331 331 330 330 330 330 331 331 331 330 329 328 328
318 318 316 314 313 315 318 317 313 311 313 315 314 315 318 318 317 319 317 316 322 321 310 307 310 312 317 318 316 315 313 311 312 313 315 315 314 317 318 317 314 311 310 310 310 310 310 309 308 307 306 306 306 307 307 309 313 316 319 322 324 326 326 326 327 327 328 328 329 330 330 330 331 331 331 330 329 329 329 330 331 330 330 329 327 327
320 317 314 314 314 315 318 319 314 311 314 316 314 318 322 320 321 324 322 319 321 318 309 307 310 314 317 316 315 315 313 312 312 311 313 314 314 316 317 316 314 311 309 309 309 310 310 309 309 308 307 307 306 306 307 308 310 314 317 321 323 325 325 326 326 327 327 328 328 329 329 330 330 330 330 330 329 329 329 329 330 331 330 329 327 326
323 322 317 316 316 316 318 318 315 312 313 316 315 318 321 321 324 327 325 323 323 317 309 309 314 319 319 315 312 310 311 312 311 310 310 309 309 312 312 310 310 309 308 308 307 308 307 307 307 307 307 307 306 305 306 308 310 313 317 320 322 324 325 325 325 326 326 327 328 328 329 329 330 330 330 329 329 329 329 329 330 330 330 330 328 326
324 322 316 315 315 315 318 316 313 313 314 315 315 317 320 320 320 320 319 318 317 315 312 311 315 317 315 313 312 310 310 310 311 310 310 309 309 310 310 309 309 308 308 309 309 308 307 307 307 307 308 307 307 306 306 306 309 312 315 318 321 323 325 325 325 325 326 326 327 327 328 329 329 330 329 329 329 329 328 329 329 330 330 330 329 327
324 318 313 313 313 314 317 315 313 316 317 314 315 316 316 314 314 316 315 310 311 319 318 313 314 315 314 316 314 314 313 310 310 310 309 311 312 311 312 312 311 310 310 310 310 309 309 310 309 308 308 308 308 307 306 306 307 310 314 317 320 322 323 324 324 324 325 326 326 327 327 328 328 329 328 328 329 328 328 328 329 330 329 329 328 327
321 316 311 312 315 314 313 314 313 315 316 315 316 316 314 314 314 315 318 314 313 320 320 314 315 316 317 319 316 313 314 313 311 311 310 310 311 312 314 316 315 313 313 313 313 313 311 311 310 309 308 308 308 307 307 306 307 309 312 315 318 320 322 323 322 323 324 325 325 326 326 327 327 327 327 328 328 328 328 328 329 329 328 328 328 327
317 317 312 310 314 313 310 314 316 313 312 313 315 316 316 319 319 316 318 319 319 321 321 315 312 313 316 317 314 312 314 313 313 313 311 310 310 311 313 315 314 314 316 317 317 315 311 310 310 309 307 306 306 306 306 306 307 308 311 313 315 317 319 321 321 321 323 324 324 325 325 326 326 327 327 327 327 327 327 328 328 327 328 328 328 327
315 318 315 310 311 312 311 315 318 316 312 310 312 315 315 317 319 317 317 319 320 323 323 318 314 314 316 314 314 315 314 312 313 313 313 312 311 310 310 312 313 314 316 316 315 313 310 309 309 307 306 305 304 305 306 306 307 309 311 312 314 316 318 319 320 321 322 323 323 324 324 325 325 325 326 327 327 327 327 327 328 328 328 328 327 326
313 315 316 311 310 313 315 316 318 318 314 311 314 316 315 313 314 316 316 315 317 321 320 319 320 318 313 311 312 314 313 314 314 314 315 314 311 310 312 313 314 314 313 312 311 310 308 309 308 306 305 304 304 304 306 307 308 309 311 313 314 316 317 318 319 320 320 321 322 323 323 324 324 325 325 326 326 326 326 327 328 328 328 328 327 325
313 314 315 312 312 314 315 314 315 316 315 314 315 316 316 315 314 318 321 315 313 316 316 315 319 319 312 310 311 311 312 313 313 314 313 311 310 313 315 314 311 311 310 309 308 307 307 308 308 307 305 304 304 305 306 307 309 309 310 311 312 313 314 315 316 317 318 319 320 321 322 323 324 324 324 325 325 325 326 326 327 328 328 328 326 324
312 314 314 313 314 314 312 309 310 312 313 314 315 315 316 316 315 320 323 317 313 314 312 311 315 318 313 312 312 310 310 310 310 311 311 310 310 311 311 310 309 307 306 306 306 306 307 308 307 306 304 304 304 306 308 308 309 310 309 309 310 311 312 312 313 314 315 316 318 319 321 322 322 323 324 324 325 325 325 325 327 328 328 327 325 322
312 314 314 314 313 311 310 308 308 309 312 313 314 314 315 316 317 316 315 314 315 315 313 314 317 318 314 314 314 311 309 309 308 307 309 311 311 308 307 308 307 306 306 306 305 305 306 306 304 304 305 305 304 306 308 309 309 310 309 309 309 309 310 310 310 311 311 312 314 316 318 320 321 322 323 324 324 325 324 325 325 326 327 326 323 321
315 315 314 315 315 315 314 312 311 310 311 313 314 313 313 315 316 313 310 311 314 316 315 317 321 319 313 314 314 311 310 310 307 305 306 310 311 309 307 306 304 304 305 306 306 305 305 304 304 305 306 306 306 306 308 308 308 309 309 309 309 309 309 309 309 309 309 310 310 312 315 318 320 322 322 323 323 323 323 324 324 324 325 324 322 321
315 315 314 316 318 319 318 317 316 314 312 313 314 313 312 314 315 314 313 314 316 317 316 317 321 319 312 311 312 312 311 310 308 307 306 308 310 310 310 310 307 307 309 310 309 307 305 305 305 306 306 306 306 306 306 307 307 308 309 309 309 308 307 308 308 309 309 309 310 311 313 316 318 320 321 322 322 322 322 322 322 322 323 323 321 321
315 314 315 317 318 319 319 317 316 315 314 314 314 314 313 314 314 315 316 316 317 317 316 317 318 318 314 311 311 312 312 311 309 309 309 310 312 313 313 312 310 310 311 310 308 307 306 305 304 305 305 305 305 305 305 305 306 307 308 309 309 308 307 308 309 309 310 311 312 313 314 315 317 318 320 320 320 321 320 320 320 320 321 321 320 319
315 314 315 317 317 317 317 315 315 315 315 315 315 315 314 313 314 316 317 318 318 317 318 317 316 317 317 313 311 313 314 312 309 309 309 309 311 312 312 313 313 315 314 312 312 313 311 307 305 305 306 305 304 303 303 304 305 306 307 309 309 309 308 308 309 310 312 312 313 314 315 316 317 318 319 319 319 319 319 319 318 318 318 318 318 319
316 315 316 317 315 315 315 313 314 315 315 315 315 315 315 314 314 315 316 317 317 318 320 319 317 317 316 314 312 313 312 310 308 308 307 307 310 311 310 314 318 319 319 320 320 318 315 311 307 306 306 305 304 303 302 302 303 305 307 309 310 309 308 309 310 311 312 312 312 314 315 316 317 317 317 317 316 316 316 316 316 315 315 316 317 317
316 316 317 316 313 312 313 313 314 314 314 314 315 315 315 314 314 313 314 315 316 317 318 317 317 317 316 315 314 313 314 312 308 307 306 307 311 311 310 312 313 314 318 321 321 318 314 311 308 306 306 305 303 303 302 302 303 304 305 307 309 309 308 309 311 311 311 311 311 312 314 314 314 314 314 314 313 313 313 314 314 314 314 315 315 313
316 315 314 314 312 311 311 313 314 314 314 314 314 314 314 314 315 314 314 314 315 316 316 316 317 317 315 314 313 312 314 313 310 309 308 308 310 310 309 309 310 313 316 319 320 318 313 307 306 306 306 305 304 303 302 303 303 303 304 306 308 309 309 309 310 310 310 310 310 311 312 312 311 311 310 310 310 311 312 312 312 312 313 314 313 311
314 312 312 314 314 311 310 312 313 314 314 314 315 315 314 315 315 315 315 314 314 315 316 316 317 316 314 313 312 311 311 311 310 310 311 311 312 310 309 309 310 312 315 316 316 317 318 317 313 309 306 305 304 303 303 303 303 303 303 304 307 309 309 309 309 309 310 309 309 310 310 310 309 308 309 310 310 310 310 310 311 311 312 313 311 309
312 311 312 314 314 311 309 311 312 313 314 315 315 315 314 314 314 314 315 315 314 315 316 316 316 316 314 313 312 311 310 311 311 311 312 314 314 313 312 311 310 311 312 314 312 313 319 322 316 309 307 306 304 304 304 304 303 304 304 305 306 308 309 309 309 309 308 308 309 309 309 308 307 306 308 310 311 310 310 310 310 311 311 310 308 306
313 313 312 314 314 311 310 312 314 316 317 318 318 317 314 313 314 314 314 314 314 314 315 316 315 315 314 313 312 312 311 312 312 313 313 313 314 314 314 313 312 311 312 313 312 311 313 313 309 306 305 304 304 305 304 304 304 304 304 304 305 306 307 308 308 308 308 308 307 308 307 307 306 306 308 308 309 309 309 309 309 308 307 306 305 303
314 314 313 314 313 311 310 314 317 317 317 318 320 319 314 312 313 314 314 314 313 313 314 314 314 315 314 313 312 312 312 312 313 313 313 314 314 314 314 314 314 312 311 312 313 313 312 309 307 306 304 304 304 304 303 303 303 302 302 302 303 304 306 307 307 306 306 307 306 307 307 306 305 306 307 307 307 308 308 307 306 305 304 304 303 301
313 314 313 313 312 311 312 315 318 319 317 317 318 315 313 313 313 313 314 314 312 312 313 313 313 313 313 313 311 312 312 312 312 312 312 313 314 314 314 314 314 313 312 313 314 313 310 307 306 306 305 304 304 304 303 302 302 301 300 301 301 302 304 305 305 305 305 305 305 306 306 306 305 305 305 306 306 305 305 304 303 303 303 300 298 296
312 313 313 311 310 312 314 315 316 317 316 317 316 312 312 313 312 313 315 314 313 312 312 312 312 312 313 313 312 312 311 311 312 311 311 311 313 313 312 311 312 313 312 310 308 307 306 305 305 305 304 304 304 303 303 302 301 301 300 299 299 300 301 302 303 304 304 303 303 305 306 306 306 305 305 304 304 303 302 302 301 301 299 297 294 292
312 313 314 313 309 309 312 314 315 315 316 317 317 313 312 313 313 313 315 316 314 313 312 312 312 312 312 313 313 313 311 311 312 312 311 312 313 312 311 310 309 308 306 304 303 303 304 304 305 305 304 304 303 303 303 302 301 300 299 298 298 298 299 299 300 302 302 301 302 303 304 304 305 304 304 303 302 302 301 300 299 297 295 294 292 291
313 312 313 313 309 309 313 314 314 315 315 315 316 313 311 313 315 313 314 316 316 315 314 312 312 313 313 313 313 313 312 312 313 313 312 313 312 311 310 310 308 305 303 301 301 302 303 303 304 304 304 304 303 303 302 302 301 300 298 298 297 297 297 297 298 300 300 300 300 301 302 303 303 303 303 302 301 300 299 297 296 294 292 291 290 289
312 311 311 313 311 310 313 314 313 314 314 314 314 311 309 312 314 314 315 316 316 316 315 314 313 313 313 313 313 313 312 312 313 314 314 313 312 310 308 308 308 305 301 300 299 300 301 301 301 302 303 304 303 302 302 301 300 299 298 297 297 296 296 297 297 298 299 299 299 299 300 301 302 302 301 301 299 298 296 294 293 292 290 289 288 288
311 310 311 313 312 311 312 314 313 312 313 314 312 309 310 312 313 314 316 316 316 316 315 313 314 313 312 313 313 311 311 312 313 315 314 311 311 311 304 300 300 299 298 298 298 298 298 298 299 301 302 302 302 301 301 300 299 298 297 297 296 296 296 297 297 297 298 298 298 298 299 300 301 300 300 299 298 296 294 293 292 291 289 288 287 287
311 311 311 312 313 312 311 312 312 312 314 314 309 307 310 313 314 314 315 315 317 318 314 311 313 313 311 311 312 311 310 311 312 314 314 312 312 311 303 299 298 298 296 296 297 296 296 297 298 300 300 301 301 301 300 300 298 297 297 296 296 296 297 297 297 297 298 298 297 298 299 299 299 299 298 297 296 295 293 292 291 290 289 288 287 286
312 312 312 312 312 312 311 312 313 314 314 312 309 307 309 312 315 315 314 312 313 316 316 314 313 312 310 310 310 310 310 309 309 311 314 312 309 306 301 299 299 298 296 295 295 296 297 297 298 298 299 299 299 299 300 299 298 297 296 296 296 297 297 297 297 297 297 297 297 297 297 298 297 297 296 296 295 294 293 291 289 288 287 287 286 285
311 312 312 312 311 312 313 313 313 313 311 310 311 311 309 311 314 316 316 315 314 313 315 318 315 309 308 310 310 309 308 308 308 310 312 311 307 303 300 298 297 296 295 294 294 296 297 297 296 296 297 297 297 298 298 298 298 296 296 296 297 297 297 296 296 296 296 296 296 296 296 296 295 295 294 294 293 292 291 290 288 287 286 285 285 284
311 312 313 313 311 312 313 312 311 310 309 309 313 314 310 309 312 314 315 318 320 314 310 316 320 314 308 308 309 308 306 306 307 308 309 308 305 301 298 296 294 294 293 293 294 295 297 297 295 295 295 295 296 297 296 297 298 297 296 297 297 297 297 296 296 296 295 295 295 295 295 294 293 293 293 292 292 291 290 288 287 285 285 284 284 283
310 310 312 314 311 310 312 311 309 309 308 308 312 314 311 309 310 311 313 318 322 317 310 314 321 316 308 306 309 311 308 305 307 308 307 307 304 298 295 295 293 292 293 292 293 294 296 296 295 294 293 293 294 296 296 296 297 297 297 297 297 297 296 296 296 295 295 295 294 294 293 293 292 291 291 290 290 290 289 289 287 285 284 284 283 283
309 309 310 312 311 310 312 311 309 310 309 308 310 312 311 309 308 311 314 317 317 314 310 309 310 308 304 305 309 313 309 305 307 308 304 303 301 296 294 294 292 291 291 291 292 293 295 295 293 292 291 291 292 294 294 295 296 296 297 297 296 296 296 295 295 295 294 294 293 292 292 292 291 290 289 289 289 288 288 288 287 286 284 283 283 282
309 309 310 312 311 311 311 309 308 310 309 307 309 311 310 309 310 310 309 307 305 303 301 299 299 301 304 305 307 310 308 303 305 307 302 299 298 294 292 292 291 290 290 291 292 294 294 293 291 290 290 289 290 292 294 294 295 295 295 295 295 295 295 294 294 294 294 293 293 292 291 291 291 290 289 288 288 287 287 286 286 286 285 285 285 284
308 309 311 311 311 310 310 307 307 309 308 306 307 309 309 308 308 307 301 298 299 301 301 298 296 297 303 306 306 307 308 303 301 303 302 298 296 293 291 290 289 288 289 290 292 294 294 293 290 289 288 288 290 292 293 293 294 294 294 294 294 294 294 294 293 293 293 292 291 291 290 289 289 289 289 288 287 287 287 287 286 286 286 286 286 285
308 309 309 310 312 311 309 308 309 311 311 309 308 308 308 306 306 306 303 302 303 304 304 304 300 295 297 300 300 305 310 305 298 298 300 297 294 292 290 288 287 287 287 289 291 292 292 291 290 288 288 288 290 291 292 292 293 293 293 293 293 293 293 293 292 291 291 290 290 289 289 288 288 288 287 287 287 286 285 285 285 285 285 285 285 284
309 310 308 309 312 312 309 309 310 311 311 311 309 307 306 304 304 306 308 306 303 300 301 306 306 302 299 295 294 300 307 303 296 296 297 294 290 289 288 288 288 287 287 289 290 289 289 289 289 289 289 289 290 291 291 291 292 292 292 292 292 292 292 292 292 291 290 290 289 289 288 288 287 287 286 286 286 285 284 283 283 283 283 283 283 283
Wind_Speed
4 6 7 8 11 12 12 11 8 6 7 8 8 7 4 5 4 3 4 2 1 5 7 7 10 13 13 16 15 4 5 6 7 8 8 7 7 7 8 9 10 11 10 9 9 12 15 18 20 22 22 22 22 22 22 23 23 21 20 19 19 18 18 20 21 22 24 22 19 19 19 20 21 22 21 20 20 20 21 20 18 17 17 17 17 18
3 10 11 11 13 13 13 11 8 5 5 6 7 6 5 5 4 4 4 3 2 4 7 7 10 13 12 14 15 5 6 9 10 10 10 10 9 7 9 11 10 9 8 8 9 11 14 17 21 23 22 23 23 24 25 25 25 23 21 21 20 19 20 22 23 23 25 26 25 24 23 24 23 23 22 20 19 20 22 20 19 19 18 17 18 19
8 13 14 14 14 13 10 9 8 6 5 6 6 4 4 4 3 4 5 3 3 4 6 8 10 13 13 13 15 11 9 11 12 12 12 10 9 8 9 10 9 8 9 10 10 12 15 17 20 22 22 24 26 25 27 28 27 25 24 23 21 20 22 23 23 24 25 27 28 26 24 24 24 24 24 21 19 20 23 22 21 21 19 19 20 21
8 10 14 15 14 13 10 9 9 6 4 4 5 6 5 4 5 5 4 4 3 3 5 8 9 12 13 12 15 14 12 12 11 11 11 8 9 10 8 7 8 10 10 10 10 12 15 16 18 20 22 23 25 25 26 28 29 28 28 27 25 23 22 21 24 28 27 26 27 25 21 20 21 22 21 19 19 20 22 22 22 22 20 20 21 22
5 6 13 15 15 16 12 11 12 6 3 4 5 8 5 6 8 6 1 1 4 3 2 5 8 10 12 13 15 11 8 10 9 9 9 9 10 9 5 6 9 11 11 10 11 11 14 17 19 21 23 23 24 26 26 29 32 33 34 34 31 28 25 22 23 29 28 23 22 21 19 18 20 22 20 18 18 17 17 19 21 23 21 20 21 21
5 10 15 15 14 16 13 12 13 9 6 5 5 8 8 9 10 5 1 2 5 5 3 2 7 8 7 11 13 9 6 8 8 9 12 11 10 8 7 9 11 10 10 10 10 10 13 17 19 20 22 23 24 27 28 32 37 39 38 37 36 35 34 31 26 25 26 24 22 22 23 24 23 22 21 21 19 18 19 21 22 23 21 20 22 21
4 9 13 16 14 14 11 8 13 13 8 5 6 8 9 10 10 8 4 2 5 4 0 1 6 6 4 7 9 7 8 9 8 9 12 11 9 9 10 10 10 10 10 10 10 10 12 15 17 19 23 26 28 31 32 34 39 41 39 38 39 39 38 39 34 26 24 25 24 24 28 28 25 23 21 22 22 19 19 22 23 24 23 20 20 21
8 12 12 15 15 12 10 8 12 14 9 5 8 12 12 10 11 10 6 4 3 4 4 3 3 6 8 6 4 4 8 11 10 10 10 10 10 10 11 11 11 11 10 9 10 11 13 16 18 21 25 30 36 37 36 38 40 40 40 40 40 40 39 40 39 33 28 25 24 23 25 26 25 24 21 19 21 18 18 22 22 23 25 21 17 17
10 16 15 15 12 11 12 10 12 16 9 2 7 12 11 9 9 6 4 3 1 3 7 5 4 5 9 5 3 3 10 15 15 12 10 10 11 11 12 12 12 12 11 10 10 11 13 17 21 23 26 33 38 37 38 40 39 38 39 39 39 40 40 40 40 39 32 26 25 24 23 24 23 22 21 18 18 19 19 21 21 23 26 23 19 18
6 10 14 16 11 11 12 11 15 16 7 3 8 8 5 5 3 2 2 2 1 4 8 6 8 6 10 7 4 4 9 14 14 10 9 9 10 10 11 10 11 10 10 10 11 12 14 16 19 22 24 28 33 35 37 37 36 36 36 37 39 39 40 40 40 41 37 28 26 25 24 24 23 21 20 19 20 20 19 19 22 25 26 24 23 23
3 3 6 8 5 6 9 9 11 11 7 10 10 9 7 4 2 2 1 1 2 7 5 5 9 6 8 8 7 7 6 9 11 10 9 8 8 9 9 8 9 9 9 9 10 12 14 14 15 18 22 25 28 30 32 33 33 34 34 34 36 36 36 36 35 38 39 32 26 26 25 25 25 22 21 23 24 24 22 21 24 28 27 25 24 24
5 5 4 2 0 7 13 8 4 5 9 10 8 8 8 4 2 2 1 1 6 5 1 3 8 10 10 6 5 7 5 6 10 12 13 13 10 8 8 8 8 8 7 8 9 10 11 11 14 17 21 23 25 26 29 33 33 33 34 34 31 29 29 28 27 30 33 30 27 27 26 26 25 23 23 27 29 29 28 27 27 28 29 27 25 23
6 4 4 3 1 7 14 9 4 4 6 5 7 9 6 3 3 4 3 3 7 4 1 2 4 9 12 9 9 10 6 6 10 10 12 12 10 8 7 7 6 5 5 6 7 8 7 9 12 15 18 19 23 27 29 31 32 33 35 34 31 29 29 26 24 27 29 28 27 27 26 26 25 24 24 26 30 31 32 31 30 31 30 28 26 25
5 1 4 6 3 7 12 11 6 5 5 5 8 8 5 5 5 6 5 3 5 3 2 1 2 6 9 6 10 13 10 9 9 8 9 7 7 6 2 2 2 3 5 6 6 6 6 7 9 11 14 17 22 27 29 30 32 33 34 34 31 29 29 26 24 25 27 28 27 26 26 26 25 25 24 24 26 29 31 31 33 34 32 29 28 26
7 1 7 9 5 8 11 9 9 8 6 6 5 4 4 6 5 5 5 5 3 1 2 3 2 6 4 2 3 7 7 6 4 4 6 7 8 7 3 3 4 5 6 5 5 7 7 7 9 10 13 18 23 26 27 28 30 31 32 32 29 28 29 29 26 24 26 27 26 25 25 24 24 25 23 22 24 26 29 32 33 35 34 31 29 28
7 2 7 7 4 11 13 9 12 13 7 4 1 1 3 3 2 1 1 2 1 1 3 5 4 5 2 6 8 6 4 3 4 4 5 8 8 7 6 6 6 6 6 4 5 6 7 7 9 11 12 16 20 23 26 28 29 31 31 30 28 27 27 27 26 24 24 25 23 24 25 24 25 25 22 22 25 26 28 32 34 34 34 32 29 29
7 3 5 4 4 12 11 10 15 12 7 4 3 4 2 1 2 1 1 2 1 4 4 5 6 6 4 9 11 10 8 5 4 6 7 9 8 6 7 7 6 5 4 4 5 6 7 7 9 11 13 14 17 21 25 28 29 31 31 28 25 22 23 23 24 23 23 23 23 24 24 24 25 25 25 26 28 27 27 31 34 34 34 33 31 30
7 6 2 1 8 7 1 6 12 5 4 6 6 6 4 2 2 2 3 1 3 7 4 4 8 6 4 6 3 7 12 9 7 7 7 7 7 7 8 8 6 4 3 4 6 7 6 7 9 10 12 14 16 19 22 25 27 28 29 27 22 19 21 22 22 24 26 26 27 27 27 27 26 26 27 28 29 29 28 30 33 34 35 35 33 32
8 8 2 1 6 5 2 5 8 3 1 2 4 8 5 2 4 4 4 3 4 7 5 4 6 6 8 8 2 4 8 9 10 8 5 7 7 7 8 7 5 3 4 4 5 5 5 6 8 8 9 13 15 16 18 21 23 25 26 23 20 19 19 20 22 27 29 29 30 30 30 31 30 29 29 28 27 29 30 31 32 34 35 36 34 33
6 6 4 2 1 5 4 5 8 6 2 1 3 8 3 2 3 4 3 1 3 6 6 3 2 5 7 8 8 10 8 8 10 7 7 9 6 3 5 6 4 3 4 4 4 4 4 6 8 8 9 11 13 13 14 15 18 22 22 19 19 20 19 21 25 28 29 29 30 31 31 32 32 31 31 29 28 30 32 33 34 34 36 35 34 33
3 2 6 4 1 6 7 6 9 12 9 5 7 8 5 2 1 1 3 2 3 5 5 5 5 5 3 4 10 14 12 13 11 7 7 5 2 2 4 4 4 4 4 4 3 4 5 6 7 8 9 9 9 11 12 12 14 18 20 20 20 20 20 23 26 28 29 29 30 30 31 31 31 32 31 30 29 31 33 34 35 35 36 35 35 35
2 4 8 8 6 8 5 1 2 8 10 9 8 9 10 8 5 4 6 5 3 4 3 3 7 6 3 3 6 10 11 10 6 4 4 2 3 5 4 4 4 4 5 4 3 4 4 5 6 7 8 8 8 10 12 13 13 14 17 18 17 16 17 19 21 24 27 28 28 29 29 30 30 31 31 31 31 32 33 34 36 36 35 34 35 36
2 5 8 9 7 4 1 3 3 1 6 7 6 8 10 9 8 8 6 4 4 4 1 1 6 5 4 4 5 7 6 3 3 3 5 4 5 5 4 4 5 5 5 5 4 4 3 4 4 4 6 8 9 10 11 12 12 12 13 14 14 15 16 15 16 18 21 24 25 27 27 28 29 30 31 33 33 34 34 35 36 37 35 34 36 37
3 6 7 8 5 2 3 2 2 3 2 7 8 8 8 10 10 4 1 1 4 5 4 2 7 6 4 6 4 3 1 1 3 4 5 5 4 4 5 6 5 5 5 5 4 4 3 3 3 4 6 7 8 9 10 10 10 10 10 11 12 14 16 16 15 16 18 20 22 25 26 27 28 29 31 33 34 35 35 35 36 37 35 34 36 36
3 6 7 9 7 4 3 3 4 4 6 8 8 6 7 9 6 2 1 1 3 7 8 6 9 9 2 4 2 1 1 4 4 4 5 6 4 3 4 4 4 5 5 4 4 3 3 3 3 5 6 6 7 9 10 10 10 10 10 11 12 13 15 16 16 17 18 18 20 24 26 27 28 29 31 33 33 34 35 35 36 36 35 35 35 34
4 7 7 10 10 9 10 7 6 7 6 4 5 8 11 11 11 7 3 4 6 9 11 9 11 7 3 4 2 3 4 6 4 4 4 5 4 4 4 3 3 3 4 3 3 3 3 4 4 5 5 6 7 9 10 11 11 11 11 11 11 12 14 16 16 17 18 18 20 22 25 27 28 29 30 32 32 33 34 35 36 36 36 36 36 35
3 5 6 10 12 10 9 6 8 12 10 9 13 16 16 16 16 11 4 8 10 7 8 12 14 7 2 5 3 3 4 4 1 2 2 2 3 4 3 3 4 3 3 3 2 3 3 4 5 6 7 8 8 9 10 10 11 12 13 14 13 12 13 15 16 17 18 19 21 23 25 27 28 28 29 30 31 32 33 34 35 36 37 37 38 37
4 5 10 13 9 2 3 6 11 16 16 18 20 20 17 15 16 12 11 16 11 4 7 14 14 15 12 8 6 4 4 2 1 3 2 1 2 2 3 5 5 4 3 2 4 4 5 6 6 7 8 8 9 11 10 10 11 14 16 17 15 13 14 16 17 18 19 21 23 25 26 27 27 28 29 29 30 31 32 34 35 36 37 38 38 36
5 7 11 11 4 5 5 8 12 13 10 11 15 17 17 18 18 17 20 22 13 8 13 11 9 16 19 11 10 9 6 4 4 5 2 2 3 3 3 5 5 3 2 3 5 5 6 6 6 7 8 9 9 12 13 13 14 16 18 18 18 16 16 17 18 19 21 22 24 25 25 26 27 28 28 29 30 31 32 32 33 34 36 37 36 34
3 6 8 10 6 6 4 8 12 12 8 8 13 16 18 21 23 23 24 23 16 15 20 13 7 17 19 11 11 11 9 6 2 3 4 5 5 5 4 6 6 4 3 4 5 5 6 6 6 7 8 9 11 13 17 18 17 19 21 21 20 19 17 18 19 20 20 22 22 23 24 24 25 27 28 28 29 30 31 32 33 35 36 35 33 31
2 5 9 10 7 4 2 6 11 12 11 10 12 16 19 22 24 24 21 15 11 16 25 19 14 18 15 7 8 7 6 4 2 4 8 7 6 5 5 7 7 5 4 5 4 3 4 5 6 6 8 11 14 17 21 23 22 20 22 23 23 21 19 19 20 20 21 21 22 23 23 23 24 25 26 27 28 29 30 32 34 35 34 32 31 30
1 3 7 9 7 2 2 6 9 8 6 6 11 18 24 23 20 19 18 16 16 20 23 18 15 16 8 6 8 6 4 5 8 10 10 7 6 6 7 9 8 6 7 7 5 3 3 5 6 7 10 12 15 19 24 26 24 21 22 24 25 23 22 21 21 21 21 21 22 22 23 24 24 25 25 25 26 28 29 31 32 31 31 31 31 31
4 6 6 8 7 3 2 6 9 7 4 6 12 18 22 20 17 16 17 20 22 20 15 12 15 13 2 7 8 9 8 10 11 9 8 9 9 8 8 10 9 8 7 6 5 4 5 6 6 7 9 11 15 22 26 26 26 25 24 25 25 25 24 24 23 22 21 21 22 23 24 24 25 25 26 26 27 28 29 29 30 30 30 31 31 32
7 9 6 6 6 5 5 6 8 6 7 9 7 11 19 21 22 21 21 23 24 20 15 13 15 10 2 5 9 10 11 12 10 8 9 9 9 9 9 9 9 8 6 4 5 6 5 5 5 7 11 14 18 22 23 24 26 26 24 23 24 25 25 25 25 24 23 22 22 23 24 25 26 26 26 27 28 28 29 29 29 29 30 31 32 34
10 9 5 3 4 5 5 6 6 9 11 6 2 8 19 24 24 23 21 20 18 18 18 18 20 16 9 7 7 7 10 11 10 13 14 12 11 12 13 12 8 4 4 5 6 6 5 5 6 10 14 16 18 19 19 21 23 22 20 20 23 26 26 26 26 25 24 24 23 23 24 25 26 26 26 27 27 27 28 28 28 29 29 31 33 36
12 9 4 3 3 4 4 7 9 7 6 3 2 4 13 17 16 14 13 14 15 17 17 20 24 23 17 10 6 6 6 5 6 11 11 9 11 11 12 13 9 6 7 7 6 6 7 9 10 11 13 13 14 16 18 19 20 20 20 19 22 25 26 26 26 26 25 26 25 25 25 25 25 26 26 27 28 28 28 28 28 29 31 33 35 37
12 10 7 4 2 3 5 8 6 5 7 6 5 5 8 10 11 11 9 13 17 18 16 19 23 21 17 14 10 6 2 2 8 9 6 6 11 11 9 10 10 10 9 5 4 7 9 11 10 8 9 9 10 13 16 17 18 20 21 19 19 23 25 25 26 27 26 26 26 28 28 27 27 27 26 27 27 28 29 28 29 31 33 35 37 38
9 9 11 9 3 2 5 6 4 5 7 7 4 6 9 9 11 13 9 11 11 14 16 19 21 19 17 16 13 6 3 3 11 9 7 10 12 10 8 8 8 9 8 5 4 6 9 10 8 7 8 8 9 11 14 16 18 20 21 19 19 21 23 25 26 27 26 24 25 27 28 28 28 28 27 27 28 28 29 29 30 32 34 36 38 38
5 3 7 8 3 4 7 6 7 9 7 2 5 9 11 10 12 11 5 7 6 13 16 19 21 20 17 15 10 6 5 7 11 10 7 8 7 5 6 8 7 9 11 10 9 9 10 10 8 8 8 9 11 12 13 15 18 20 22 21 19 19 21 23 25 24 24 23 23 24 26 26 27 28 28 28 29 29 29 29 31 32 33 35 36 36
6 3 5 7 5 6 8 6 5 6 2 2 6 8 9 11 14 12 4 5 5 9 11 14 17 17 13 11 8 7 8 11 11 7 3 1 2 2 2 4 3 5 7 8 9 11 12 11 10 10 11 12 12 12 13 16 18 20 21 21 19 18 18 20 21 20 21 21 20 22 24 26 27 27 27 28 28 28 28 29 30 32 33 33 34 35
5 5 6 8 6 5 7 6 4 3 2 4 5 8 13 13 10 9 7 1 4 7 6 7 11 12 9 9 7 7 11 13 8 2 2 3 3 3 2 2 1 1 1 4 7 9 10 10 10 10 10 10 10 10 13 16 18 19 19 18 18 17 17 18 19 19 19 20 20 21 23 24 26 26 26 27 27 27 28 29 30 32 33 33 33 34
8 8 6 7 6 4 4 4 3 5 5 7 4 4 11 11 6 7 4 2 3 6 5 5 9 9 8 9 9 10 11 8 3 1 3 3 2 3 2 2 2 2 2 1 2 3 6 7 6 6 6 6 7 9 12 16 17 16 16 16 16 16 16 16 17 17 18 19 19 20 21 22 24 25 25 25 26 27 27 28 29 31 33 33 34 34
9 9 8 7 6 4 3 5 3 7 6 14 12 4 5 6 4 3 3 1 3 4 4 5 6 5 6 8 9 11 9 3 2 2 2 3 2 3 2 2 3 2 2 3 3 2 6 8 7 6 6 6 7 10 12 15 15 14 14 15 14 14 13 14 14 15 15 17 17 19 20 21 23 24 24 25 26 27 28 28 29 31 32 33 33 33
7 10 8 7 8 7 8 10 6 3 5 14 14 8 7 5 1 2 3 3 2 3 3 3 4 4 6 7 6 7 5 3 3 3 3 3 3 3 2 3 3 2 2 4 4 4 8 10 9 8 7 7 8 10 12 13 13 12 12 12 10 10 11 11 11 12 14 15 16 18 19 20 21 23 24 24 25 26 27 28 29 30 31 32 32 32
11 10 4 4 9 7 5 5 1 2 5 9 5 4 11 9 2 1 3 2 2 4 3 2 4 5 5 5 4 3 4 4 4 3 3 3 3 3 3 3 3 3 3 4 5 5 8 10 11 10 10 8 7 8 10 10 10 10 10 9 8 8 10 10 11 12 13 15 16 17 18 19 20 21 22 23 25 26 27 28 29 30 31 32 32 33
6 6 2 2 6 4 4 2 2 2 4 7 1 1 7 10 4 2 3 2 2 4 4 2 3 4 5 5 4 3 4 5 5 3 2 3 4 3 3 4 4 3 4 5 6 7 9 10 11 11 11 10 7 7 8 8 7 7 7 7 7 8 9 10 12 13 14 15 15 16 17 18 19 21 21 22 24 26 27 29 30 31 32 32 33 34
1 4 2 3 7 6 6 6 7 4 6 9 5 1 2 4 4 3 4 3 2 3 4 1 1 4 5 4 3 3 4 5 6 5 3 4 4 4 4 4 4 4 6 6 6 6 9 10 10 10 11 10 8 7 7 6 5 5 4 5 7 8 9 10 12 13 14 14 15 16 17 18 20 21 21 22 24 25 27 29 31 32 34 35 35 35
2 4 4 5 9 8 5 4 6 5 5 6 5 2 3 6 8 5 1 0 1 3 3 2 1 4 5 4 3 4 4 4 5 6 5 4 4 4 4 4 4 5 6 7 6 7 9 10 10 9 10 11 9 7 7 6 6 5 4 5 6 7 9 10 11 11 12 13 14 15 17 18 19 20 22 23 25 26 27 29 31 33 36 38 39 39
6 8 8 8 9 5 2 1 5 4 2 4 7 7 7 8 9 5 2 2 3 4 4 3 3 1 3 4 4 6 6 4 4 6 6 5 4 5 4 5 6 7 8 10 10 10 12 12 11 11 12 12 10 8 8 8 7 6 5 5 5 6 7 9 10 10 11 12 13 15 16 17 19 20 21 22 24 26 27 29 31 33 36 37 38 40
8 10 6 6 9 8 5 7 10 7 6 9 12 13 10 6 7 6 4 4 5 4 5 5 4 3 3 3 3 5 6 5 4 6 6 5 5 5 6 6 7 8 10 12 13 14 15 14 14 14 14 13 10 9 9 8 8 7 6 5 4 5 6 7 8 9 10 11 12 13 15 17 17 19 20 21 22 24 24 25 27 30 32 33 34 35
11 11 9 8 11 10 9 14 15 11 9 8 11 13 9 5 7 9 8 6 6 5 6 6 5 5 4 2 1 3 6 7 7 7 7 6 5 6 7 8 8 9 11 13 15 16 16 15 15 16 15 12 10 9 9 8 8 7 6 5 4 4 4 5 6 8 8 9 11 12 13 15 16 17 18 19 20 21 21 21 23 25 28 29 29 31
Wind_Direction
164 161 189 191 180 182 179 187 187 165 184 188 194 217 222 221 206 181 230 237 329 295 271 258 267 266 262 267 267 207 154 232 236 235 236 222 220 217 217 222 221 223 227 223 208 204 206 209 213 213 213 213 212 213 213 214 215 215 215 215 219 220 216 214 214 215 217 215 214 216 219 223 225 227 231 233 230 227 230 231 228 228 229 231 235 232
197 195 199 190 170 169 177 184 177 166 181 179 185 207 210 225 227 201 219 202 159 257 265 269 278 273 266 268 270 234 185 235 234 230 235 226 221 218 218 223 224 225 228 222 210 207 209 211 214 215 216 215 214 215 215 215 216 216 216 217 218 219 219 218 216 216 219 218 218 220 223 227 229 229 230 233 230 227 228 231 232 231 230 233 234 230
198 208 199 179 164 165 173 170 159 154 166 181 182 203 221 207 221 230 209 173 168 225 265 285 286 279 275 272 273 262 235 243 237 229 235 229 223 222 220 222 219 221 230 229 217 207 207 208 211 214 217 218 218 218 219 219 218 216 216 217 216 217 221 222 219 218 221 224 225 226 227 229 231 233 234 233 231 232 231 229 230 232 232 233 235 232
194 209 189 166 157 160 157 156 160 144 153 187 176 196 226 176 190 234 191 170 209 228 277 291 287 282 277 270 269 262 243 242 237 230 236 231 230 231 224 220 215 218 229 231 220 206 203 204 206 210 214 215 217 219 219 219 218 216 217 217 213 212 216 219 222 224 225 226 228 229 229 228 229 231 232 232 232 234 233 228 227 230 231 233 237 235
167 155 160 157 159 160 153 160 165 144 162 207 201 207 211 176 205 238 166 269 264 226 231 273 280 273 261 254 257 254 229 232 230 226 236 231 231 239 235 230 223 221 225 226 222 206 197 202 206 209 212 211 214 217 216 217 219 220 222 222 219 215 214 214 220 225 224 221 223 224 221 220 223 224 225 226 227 226 226 225 224 225 228 233 237 236
153 140 153 160 166 163 157 167 173 165 173 203 226 226 218 197 209 219 119 319 266 233 168 215 267 262 247 243 244 238 225 231 218 212 230 228 221 224 230 234 227 223 227 229 230 211 198 205 207 208 210 209 213 217 216 219 224 226 225 225 224 222 221 221 220 218 218 216 215 214 212 212 215 219 224 224 223 223 225 228 226 225 228 233 236 235
152 159 163 163 166 165 160 170 178 175 181 204 198 206 218 209 207 199 172 206 249 260 58 189 258 270 289 262 238 230 239 240 218 210 226 227 216 211 219 229 224 221 224 226 231 220 209 207 205 208 210 210 216 220 219 221 225 227 226 225 226 226 226 227 224 215 212 214 213 214 216 217 216 219 224 225 226 227 229 234 232 225 226 230 235 236
153 167 170 164 162 166 174 178 179 180 191 201 168 181 202 204 208 204 184 216 256 310 292 226 241 279 283 270 230 224 251 252 237 223 224 226 222 216 219 225 223 222 219 217 222 219 215 211 207 210 211 215 221 222 221 223 225 225 225 226 227 227 226 227 226 219 214 214 213 213 217 220 220 221 223 224 226 225 228 235 233 224 222 227 232 231
150 167 172 163 160 177 189 179 169 177 188 169 151 177 196 193 200 198 181 222 298 319 264 205 148 258 268 254 149 196 243 250 244 231 223 227 226 221 223 226 224 226 222 217 221 219 216 213 212 213 215 222 225 223 224 226 226 226 225 226 227 227 227 227 227 223 218 215 214 213 215 218 221 223 223 222 223 222 223 227 224 221 222 227 231 228
151 175 170 162 169 185 180 162 166 181 187 108 127 138 144 152 146 141 181 182 116 261 254 192 161 233 271 256 202 200 236 244 248 241 224 224 225 219 223 227 224 226 224 221 224 225 221 217 219 220 221 226 227 225 227 227 227 226 225 225 225 226 226 226 227 224 219 215 215 214 213 215 217 218 220 219 219 217 216 215 216 221 223 225 229 226
91 111 161 163 178 160 133 129 160 179 151 121 126 115 109 116 92 120 199 106 214 248 249 168 166 208 273 263 217 215 219 220 237 247 237 231 230 223 222 226 225 223 221 218 222 229 228 225 229 229 228 230 229 229 228 227 226 226 225 225 224 224 224 224 224 223 220 217 216 214 213 213 214 214 215 215 214 214 214 213 214 219 221 221 224 221
99 120 158 155 136 120 113 108 114 142 138 131 138 133 120 114 129 164 156 184 231 244 236 172 175 201 243 255 219 216 194 200 229 237 236 232 226 221 219 224 225 223 221 216 220 227 224 223 225 226 227 228 228 227 226 225 224 224 224 224 222 221 220 219 218 217 217 217 217 215 214 214 213 212 213 214 214 215 216 215 214 215 216 218 219 215
136 141 136 105 239 151 133 128 97 130 163 154 150 146 130 122 159 199 191 206 237 232 175 213 179 211 242 252 244 235 209 220 238 240 239 231 224 221 213 219 221 210 216 217 221 223 212 215 216 216 221 222 222 225 224 224 222 221 223 221 219 219 216 215 214 213 213 215 216 215 213 214 214 213 214 215 216 217 217 216 214 213 212 216 215 209
137 44 149 145 200 187 162 155 152 166 181 172 160 156 154 145 165 213 203 217 254 221 184 128 125 247 264 260 246 249 242 230 229 243 258 257 254 254 238 249 265 233 224 218 221 227 217 220 218 215 220 221 223 226 224 223 222 220 220 218 217 219 216 214 214 213 214 215 215 215 214 214 214 214 214 215 216 216 216 215 214 214 214 216 214 207
148 150 190 171 162 183 181 165 144 137 151 179 173 159 171 165 180 212 199 211 230 142 166 159 164 247 261 43 264 264 264 251 239 252 269 279 276 278 296 290 275 260 244 224 222 230 225 222 222 222 225 225 227 227 224 223 221 218 218 217 215 217 215 214 214 214 215 216 215 215 214 215 215 215 215 215 215 215 215 215 215 216 216 216 213 211
161 130 167 157 143 171 171 156 140 138 154 197 152 138 211 186 166 187 185 211 175 73 189 189 231 258 284 320 292 268 254 246 251 259 257 261 257 257 267 261 250 252 251 243 242 243 233 223 222 223 224 226 227 227 224 222 219 217 217 215 215 218 215 212 214 214 214 215 215 215 215 216 216 215 214 214 215 215 215 217 217 217 218 216 214 213
173 127 136 123 150 173 168 158 161 159 156 161 176 191 189 59 72 153 146 75 91 256 225 191 247 279 307 292 270 245 242 225 219 240 240 247 247 249 263 259 246 247 250 253 255 257 245 228 224 222 219 222 223 223 224 221 218 216 214 213 214 217 215 214 215 215 214 214 215 216 216 215 215 215 215 215 216 215 215 218 220 219 217 215 213 211
153 112 81 110 156 171 28 142 167 184 121 140 188 178 127 31 339 237 232 154 188 245 247 203 242 266 271 272 253 224 239 237 228 232 229 244 248 241 247 249 246 239 230 239 244 250 249 235 231 224 217 220 221 222 223 220 218 215 213 212 211 212 213 213 215 215 214 215 216 217 216 215 215 215 217 219 218 215 214 217 218 217 215 213 211 209
134 111 83 275 160 152 17 140 166 251 298 147 176 155 143 230 207 186 219 217 207 238 259 225 238 255 232 232 238 205 227 242 246 243 243 256 246 233 249 259 259 242 228 230 233 240 247 244 244 232 220 222 221 220 220 218 216 212 210 211 209 210 212 212 217 218 217 217 218 219 220 219 218 218 218 219 217 215 215 216 215 213 214 214 211 207
134 122 147 237 172 144 157 181 180 190 198 5 156 162 170 271 202 187 194 207 218 233 255 247 231 248 221 212 226 226 226 239 245 244 243 250 249 241 266 276 274 259 251 253 251 252 256 248 242 230 223 223 217 214 211 208 207 205 205 206 207 210 212 215 220 221 219 219 220 221 222 221 221 221 220 219 216 216 216 217 216 214 215 215 211 207
123 113 140 140 163 168 180 203 196 184 173 167 174 177 184 183 179 246 205 203 231 228 244 255 253 250 199 177 216 223 228 233 238 245 239 247 304 279 252 257 265 263 255 257 259 260 262 250 236 221 217 217 209 203 198 194 196 197 199 202 204 207 210 214 219 220 219 220 220 221 222 222 222 222 221 218 214 215 217 216 216 216 215 213 210 206
129 118 134 145 176 188 188 306 213 192 186 182 180 183 189 183 167 196 207 192 205 234 229 254 271 257 170 158 214 217 225 228 224 250 253 248 264 253 245 238 247 262 262 264 265 259 258 250 234 213 205 204 200 197 191 187 189 191 195 198 200 203 206 211 214 217 218 218 219 220 220 221 221 220 219 216 213 215 216 215 215 215 214 212 210 204
80 106 123 145 167 177 120 15 9 247 203 199 210 203 195 192 189 204 217 177 174 223 196 341 283 263 152 155 209 215 223 211 164 209 249 246 234 247 275 274 264 268 270 275 274 262 254 248 238 221 208 204 202 199 192 188 188 190 194 196 198 202 206 208 211 214 216 216 217 218 218 220 220 219 218 217 216 216 216 215 215 213 212 213 209 200
123 111 112 124 136 92 47 48 31 14 220 211 227 217 198 207 206 200 297 174 180 206 192 217 264 256 157 159 202 223 249 264 222 224 251 265 266 270 277 282 285 279 278 284 280 268 256 243 226 221 218 211 205 202 198 196 196 194 196 199 204 208 210 211 212 214 215 215 215 215 217 219 219 219 218 217 217 216 214 215 214 210 210 211 204 196
156 141 136 132 139 147 138 172 202 206 209 210 211 198 204 221 204 121 7 238 216 212 196 211 254 253 175 144 189 184 230 254 246 224 241 255 276 291 271 270 277 278 286 288 284 284 271 253 227 217 216 211 207 207 205 206 205 204 204 204 207 212 214 216 217 218 219 218 216 214 215 217 218 218 218 217 216 215 213 213 211 207 206 205 200 197
145 153 154 145 152 176 182 186 193 179 182 195 176 182 204 211 196 189 209 211 224 215 192 203 242 243 110 117 200 194 217 251 239 195 218 235 251 272 273 281 286 282 290 290 291 294 274 265 253 231 223 215 211 210 212 215 213 211 211 210 214 219 219 220 220 221 222 221 218 215 214 215 216 217 217 216 215 214 212 211 208 204 202 200 198 198
119 153 182 173 173 187 182 154 116 120 143 185 194 195 200 200 200 204 211 216 220 211 200 221 241 254 168 161 197 219 222 252 269 209 229 225 239 257 265 289 291 271 274 283 277 272 259 256 248 233 228 219 214 214 216 219 219 216 216 216 219 224 220 218 216 215 216 216 215 214 213 214 215 216 216 215 214 214 212 210 208 204 201 199 197 195
112 172 198 188 182 175 130 130 136 146 169 191 193 194 194 194 200 204 218 225 215 184 234 232 231 250 249 197 179 232 237 220 194 224 250 252 257 284 293 290 286 272 266 251 240 242 241 240 235 229 228 219 214 217 217 220 220 217 218 218 218 221 218 214 212 212 213 212 211 212 211 212 213 213 215 215 213 212 211 210 208 204 199 197 195 194
151 192 195 179 149 39 79 139 159 166 176 181 181 187 187 188 195 202 219 229 213 201 241 234 198 235 247 219 198 219 230 217 184 183 212 276 270 268 273 276 276 271 261 244 236 229 225 232 228 220 223 219 213 215 215 218 219 216 217 217 216 219 218 213 212 213 213 212 211 211 211 211 211 210 210 211 210 208 207 206 205 202 197 193 192 194
187 183 169 155 122 43 69 149 163 167 166 172 185 190 189 192 199 205 217 225 215 225 251 260 236 245 252 237 218 222 224 226 180 163 213 238 244 243 249 268 276 277 263 249 239 221 213 227 229 218 218 216 213 213 213 215 216 214 214 215 213 215 217 216 213 213 214 212 211 211 210 210 210 208 206 206 206 204 203 201 198 195 193 192 193 194
233 158 145 144 125 55 53 150 162 170 173 182 193 197 198 201 206 212 220 219 211 235 249 252 255 261 258 221 204 215 222 240 287 266 250 242 239 246 258 267 271 275 274 267 255 233 213 219 229 226 223 220 216 216 217 217 215 212 212 213 212 211 213 215 215 213 214 213 212 211 209 207 207 206 205 203 201 200 199 197 194 191 190 192 194 195
122 133 140 147 142 117 132 150 158 159 159 192 213 208 204 204 207 214 219 210 202 221 237 239 245 256 247 157 171 185 186 227 245 251 260 261 241 232 241 250 250 245 253 259 256 251 230 219 222 224 224 221 219 220 223 221 215 211 210 210 211 210 209 212 214 213 213 212 211 210 208 206 202 199 200 201 201 200 197 193 191 190 191 194 196 196
130 135 148 156 148 139 158 150 143 128 129 230 231 209 197 200 207 213 221 218 212 218 228 226 231 240 170 118 180 191 189 219 233 235 249 262 257 244 238 241 240 229 227 242 248 243 236 224 218 221 226 228 229 229 229 224 217 215 215 211 209 209 207 208 210 212 212 211 209 208 207 206 201 195 195 198 199 198 195 192 193 195 196 197 197 196
138 136 149 158 138 146 175 147 127 150 207 233 224 176 176 193 203 207 218 220 213 216 226 233 243 254 87 136 196 200 203 222 237 241 241 250 261 265 258 249 246 237 228 244 250 241 240 236 232 241 243 243 243 240 235 229 223 221 218 211 207 207 207 207 208 209 211 210 208 207 205 202 200 198 197 197 195 194 194 195 196 198 199 199 197 195
143 137 142 142 119 139 159 138 151 210 228 233 82 145 178 195 202 207 221 226 215 218 231 245 257 260 248 214 197 202 218 223 233 244 244 245 251 258 264 261 257 251 240 244 245 238 234 229 230 242 247 248 248 243 234 229 223 218 214 208 206 206 207 207 207 207 208 209 207 207 205 201 198 197 196 196 195 194 196 197 199 200 201 201 198 194
150 146 131 106 112 128 147 172 190 225 252 232 91 153 185 193 194 204 237 247 229 222 228 239 248 250 247 236 197 194 223 236 251 247 241 252 257 251 256 262 259 246 232 225 223 218 217 221 227 239 249 252 246 237 229 224 217 210 208 207 205 206 206 206 207 208 208 208 207 207 207 204 201 198 197 196 195 196 199 200 202 204 203 200 195 192
163 157 143 142 187 163 169 198 219 315 308 247 209 181 177 174 170 179 225 247 227 214 217 231 241 245 246 243 226 203 161 322 276 252 195 214 247 240 238 256 264 264 261 249 222 214 217 225 228 233 245 247 239 230 224 219 212 205 203 202 201 203 204 205 208 209 208 208 208 209 209 208 207 205 203 202 200 201 203 204 205 205 201 196 191 189
175 173 163 165 197 177 165 193 233 267 261 239 185 147 153 157 161 170 208 250 223 197 205 225 237 240 238 238 230 200 133 245 261 250 189 206 237 241 238 250 261 267 274 272 232 217 219 225 222 222 235 238 233 227 218 212 206 199 197 198 198 199 201 205 208 209 208 209 210 210 210 210 210 210 209 209 208 207 207 207 206 203 198 194 191 190
151 171 170 162 161 176 176 184 208 220 229 173 133 149 155 156 144 144 206 265 201 180 198 215 227 232 227 223 214 173 158 227 248 253 236 224 226 219 230 242 244 246 249 244 234 229 228 227 221 219 226 227 226 221 211 205 200 195 195 197 196 196 201 205 209 209 209 210 211 211 212 213 213 214 214 214 213 210 208 205 202 199 196 194 193 191
149 156 179 177 171 174 184 198 215 228 240 135 153 156 149 142 131 132 208 261 178 182 201 204 218 231 226 214 201 175 190 220 238 256 270 207 145 140 222 251 249 242 244 244 240 237 234 229 221 215 216 219 220 214 203 198 195 193 196 197 196 199 204 206 208 208 208 209 209 210 212 214 214 215 215 214 211 207 205 202 200 197 194 193 193 192
167 182 191 193 179 163 187 214 245 265 212 181 179 151 136 133 139 168 205 211 149 196 213 197 217 234 225 203 193 192 212 224 231 252 54 84 101 83 52 27 48 87 250 247 241 236 227 218 212 211 215 219 216 207 198 193 191 192 195 195 197 203 209 210 210 209 209 210 210 210 211 212 213 213 213 212 209 205 203 203 201 198 194 193 193 193
178 185 196 196 179 159 187 211 280 280 204 155 130 143 146 147 174 202 191 100 150 191 192 196 216 223 207 194 193 207 220 224 208 103 70 80 105 103 84 62 71 66 27 335 260 225 196 183 176 180 193 200 199 197 194 190 188 190 192 195 202 210 213 212 212 212 213 213 214 214 214 213 212 211 210 209 207 204 203 203 201 199 196 195 194 193
173 170 186 195 170 143 174 181 222 263 195 136 122 141 194 182 182 171 138 129 193 178 169 196 212 204 189 191 202 216 220 194 117 134 107 92 101 104 106 91 80 64 29 34 43 119 147 141 132 133 146 158 174 186 187 185 184 186 190 198 207 213 213 211 211 212 213 213 214 215 214 213 212 211 210 209 207 205 203 201 200 198 197 195 194 191
174 175 186 190 171 166 186 189 199 258 156 141 141 166 198 201 145 127 157 173 196 188 182 202 205 190 187 188 194 209 209 172 164 174 151 146 146 121 106 90 80 72 52 52 60 108 133 133 124 120 125 140 162 175 180 183 182 179 186 198 208 209 205 203 204 204 206 208 211 212 212 212 212 211 210 209 207 205 203 200 198 196 196 195 193 190
197 194 182 172 180 189 199 190 179 42 146 161 156 159 178 183 172 151 180 178 202 200 184 188 200 189 182 176 161 165 190 185 173 173 171 161 138 115 109 99 85 79 76 73 85 118 135 134 126 119 117 123 143 162 171 180 181 176 180 192 200 200 196 194 195 197 200 204 206 208 209 208 209 210 210 209 207 205 202 199 197 195 194 194 193 192
195 183 138 127 175 228 283 197 123 65 168 180 201 10 184 187 183 175 193 207 214 190 170 183 205 172 158 167 158 153 182 174 151 152 165 135 120 122 124 112 93 80 81 79 86 109 126 126 120 115 108 104 116 141 156 167 172 171 177 183 184 187 190 191 192 194 198 201 202 204 205 203 202 205 207 207 208 207 206 204 200 196 195 195 195 196
241 172 166 135 152 192 233 190 151 154 191 189 188 223 208 204 206 200 202 213 207 176 165 174 170 141 143 156 158 153 168 161 147 147 146 128 129 134 119 106 91 75 74 76 83 107 120 116 109 103 96 90 94 113 132 144 144 140 153 166 170 178 185 188 191 193 195 197 199 200 201 202 201 201 202 204 205 206 207 207 204 201 198 197 197 197
180 164 175 170 165 180 214 181 149 163 194 196 191 184 185 201 204 200 194 177 110 112 113 93 114 142 141 141 147 139 139 153 153 144 137 132 126 118 105 100 94 82 77 81 91 109 114 105 95 90 85 81 84 97 112 120 118 112 122 148 163 176 182 186 192 195 195 197 199 199 201 203 204 202 202 204 205 205 207 208 207 206 206 205 204 202
133 163 180 176 174 190 274 137 133 127 177 222 221 217 211 203 191 167 100 99 125 114 101 79 54 86 121 126 139 135 133 155 164 136 130 132 124 117 114 106 98 93 91 90 96 106 109 103 96 92 87 83 86 96 102 107 107 107 114 134 159 176 184 188 191 195 197 198 200 201 202 204 206 206 206 207 207 209 212 213 213 214 215 216 215 211
153 178 175 159 187 209 199 161 157 162 196 213 213 212 212 194 162 145 135 162 176 162 139 117 85 62 70 86 138 149 143 148 152 135 126 125 120 119 121 115 109 104 102 102 103 103 103 101 100 97 91 88 90 94 97 102 106 108 114 128 152 173 187 191 190 192 198 200 202 205 205 206 209 210 210 211 211 212 216 219 220 220 220 221 221 218
184 181 167 176 207 209 173 166 181 197 206 201 196 197 193 158 155 170 174 176 178 169 158 146 127 116 106 62 41 159 145 139 144 136 119 110 111 112 116 119 117 110 107 108 105 100 96 97 99 97 92 91 92 92 93 97 100 104 113 123 138 162 188 199 196 198 205 209 212 215 214 213 214 214 213 215 216 216 218 222 225 226 226 226 226 224